KC5KKT Weather Reports


time (UTC)temp
C
wind
direction
speed
KPH
gust
KPH
rain 1hr
cm
rain 24hr
cm
rain mn
cm
humidity
%
barometer
mb
20260509134539 21 0 0.0 4.8 0.00 0.00 0.00 91 1011.3
20260509133040 19 264 1.6 9.7 0.00 0.00 0.00 95 1011.4
20260509131539 18 0 4.8 8.0 0.00 0.00 0.00 97 1011.4
20260509130047 18 0 0.0 6.4 0.00 0.00 0.00 98 1011.2
20260509124534 18 0 3.2 6.4 0.00 0.00 0.00 98 1011.2
20260509123048 17 271 1.6 4.8 0.00 0.00 0.00 98 1011.2
20260509121538 17 0 0.0 3.2 0.00 0.00 0.00 97 1010.9
20260509120038 17 0 0.0 4.8 0.00 0.00 0.00 96 1010.7
20260509114537 17 0 0.0 0.0 0.00 0.00 0.00 97 1010.1
20260509113039 18 0 0.0 0.0 0.00 0.00 0.00 97 1009.8
20260509111540 18 0 0.0 3.2 0.00 0.00 0.00 97 1009.8
20260509110040 17 0 0.0 1.6 0.00 0.00 0.00 96 1009.7
20260509104540 18 355 0.0 0.0 0.00 0.00 0.00 96 1009.6
20260509103046 18 0 0.0 3.2 0.00 0.00 0.00 96 1009.6
20260509101537 18 338 4.8 8.0 0.00 0.00 0.00 96 1009.3
20260509100037 18 352 4.8 9.7 0.00 0.00 0.00 95 1009.0
20260509094538 18 345 6.4 8.0 0.00 0.00 0.00 94 1009.1
20260509093041 19 18 6.4 9.7 0.00 0.00 0.00 94 1008.9
20260509091538 19 326 4.8 8.0 0.00 0.00 0.00 93 1009.0
20260509090047 20 19 6.4 11.3 0.00 0.00 0.00 92 1008.9
20260509084541 20 17 8.0 11.3 0.00 0.00 0.00 91 1009.2
20260509083038 20 21 9.7 12.9 0.00 0.00 0.00 91 1009.0
20260509081535 21 53 1.6 9.7 0.00 0.00 0.00 90 1009.0
20260509080042 21 34 1.6 12.9 0.00 0.00 0.00 90 1009.1
20260509074539 21 64 4.8 16.1 0.00 0.00 0.00 90 1009.0
20260509073041 21 28 4.8 20.9 0.00 0.00 0.00 91 1008.8
20260509071541 20 76 9.7 25.7 0.00 0.00 0.00 91 1008.4
20260509070043 20 33 4.8 11.3 0.00 0.00 0.00 91 1008.2
20260509064543 20 156 11.3 17.7 0.00 0.00 0.00 90 1008.4
20260509063037 21 0 0.0 11.3 0.00 0.00 0.00 90 1009.7
20260509061538 21 0 0.0 9.7 0.00 0.00 0.00 90 1009.8
20260509060040 21 0 0.0 4.8 0.00 0.00 0.00 89 1010.4
20260509054551 21 0 0.0 11.3 0.00 0.00 0.00 88 1010.4
20260509053037 21 250 4.8 27.4 0.00 0.00 0.00 88 1010.6
20260509051539 20 314 6.4 24.1 0.00 0.00 0.00 89 1010.0
20260509050052 20 221 19.3 30.6 0.00 0.00 0.00 90 1009.3
20260509044535 20 124 4.8 20.9 0.00 0.00 0.00 90 1009.3
20260509043037 20 156 12.9 19.3 0.00 0.00 0.00 89 1010.5
20260509041538 20 233 6.4 11.3 0.00 0.00 0.00 88 1011.2
20260509040037 20 0 0.0 8.0 0.00 0.00 0.00 88 1011.8
20260509034539 20 334 3.2 6.4 0.00 0.00 0.00 87 1011.2
20260509033038 21 141 4.8 17.7 0.00 0.00 0.00 86 1009.7
20260509031551 21 168 9.7 17.7 0.00 0.00 0.00 86 1009.1
20260509030040 21 146 0.0 6.4 0.00 0.00 0.00 85 1009.7
20260509024541 21 0 0.0 6.4 0.00 0.00 0.00 84 1009.7
20260509023039 21 88 4.8 9.7 0.00 0.00 0.00 84 1009.1
20260509021537 21 150 12.9 20.9 0.00 0.00 0.00 84 1008.3
20260509020037 21 0 0.0 1.6 0.00 0.00 0.00 83 1009.6
20260509014539 21 18 1.6 4.8 0.00 0.00 0.00 83 1009.4
20260509013041 21 118 0.0 4.8 0.00 0.00 0.00 82 1008.5
20260509011547 22 0 1.6 17.7 0.00 0.00 0.00 80 1007.7
20260509010044 22 144 6.4 20.9 0.00 0.00 0.00 79 1007.5
20260509004548 23 150 9.7 20.9 0.00 0.00 0.00 77 1007.8
20260509003040 23 184 9.7 17.7 0.00 0.00 0.00 76 1008.1
20260509001535 24 143 11.3 20.9 0.00 0.00 0.00 74 1008.0
20260509000039 24 158 9.7 19.3 0.00 0.00 0.00 72 1007.6
20260508234540 25 174 6.4 19.3 0.00 0.00 0.00 71 1007.6
20260508233038 25 158 11.3 24.1 0.00 0.00 0.00 72 1007.5
20260508231539 25 124 4.8 22.5 0.00 0.00 0.00 72 1007.6
20260508230037 26 160 11.3 25.7 0.00 0.00 0.00 69 1007.7
20260508224537 26 90 6.4 19.3 0.00 0.00 0.00 68 1007.8
20260508223045 26 122 4.8 20.9 0.00 0.00 0.00 68 1007.9
20260508221540 26 155 9.7 20.9 0.00 0.00 0.00 67 1008.0
20260508220043 26 162 9.7 19.3 0.00 0.00 0.00 66 1008.0
20260508214537 26 134 9.7 20.9 0.00 0.00 0.00 67 1008.1
20260508213046 26 0 3.2 22.5 0.00 0.00 0.00 66 1008.1
20260508211543 26 180 14.5 24.1 0.00 0.00 0.00 64 1008.6
20260508210044 26 151 9.7 29.0 0.00 0.00 0.00 66 1008.9
20260508204541 26 163 11.3 19.3 0.00 0.00 0.00 63 1009.1
20260508203045 26 186 9.7 25.7 0.00 0.00 0.00 66 1009.3
20260508201546 26 0 6.4 17.7 0.00 0.00 0.00 66 1009.4
20260508200042 25 132 8.0 27.4 0.00 0.00 0.00 67 1009.7
20260508194538 25 142 12.9 25.7 0.00 0.00 0.00 67 1009.9
20260508193040 25 153 11.3 25.7 0.00 0.00 0.00 67 1010.1
20260508191537 25 190 14.5 20.9 0.00 0.00 0.00 68 1010.3
20260508190043 24 139 6.4 22.5 0.00 0.00 0.00 65 1010.5
20260508184547 24 146 9.7 17.7 0.00 0.00 0.00 67 1010.8
20260508183041 23 105 8.0 19.3 0.00 0.00 0.00 66 1011.1
20260508181604 23 219 8.0 17.7 0.00 0.00 0.00 65 1011.4
20260508180045 23 136 3.2 17.7 0.00 0.00 0.00 66 1011.6
20260508174538 22 0 1.6 19.3 0.00 0.00 0.00 68 1011.9
20260508173040 22 133 8.0 19.3 0.00 0.00 0.00 68 1012.1
20260508171543 22 179 4.8 17.7 0.00 0.00 0.00 70 1012.4
20260508170039 21 136 11.3 19.3 0.00 0.00 0.00 71 1012.8
20260508164542 21 0 8.0 19.3 0.00 0.00 0.00 72 1013.0
20260508163037 21 155 11.3 22.5 0.00 0.00 0.00 70 1013.4
20260508161538 21 153 3.2 14.5 0.00 0.00 0.00 72 1013.4
20260508160044 20 174 8.0 20.9 0.00 0.00 0.00 78 1013.6
20260508154550 19 167 6.4 20.9 0.00 0.00 0.00 83 1013.7
20260508153037 18 155 12.9 22.5 0.00 0.00 0.00 88 1013.8
20260508151538 17 164 8.0 12.9 0.00 0.00 0.00 93 1014.0
20260508150043 17 0 4.8 11.3 0.00 0.00 0.00 94 1014.0
20260508144539 16 0 1.6 6.4 0.00 0.00 0.00 94 1014.1
20260508143039 16 162 3.2 8.0 0.00 0.00 0.00 91 1014.4
20260508141547 16 164 6.4 16.1 0.00 0.00 0.00 89 1014.4
20260508140038 16 143 8.0 14.5 0.00 0.00 0.00 87 1014.3